timestamp,wind_dir_avg,wind_spd_avg,wind_spd_max_dir,wind_spd_gust,battery_voltage,lat,long
2019-12-09 00:04:01+00:00,306.0,8.83,312.0,10.27,12.65,47.59359,-54.27349
2019-12-09 00:14:01+00:00,303.0,8.58,307.0,11.88,12.57,47.59359,-54.27349
2019-12-09 00:24:01+00:00,298.0,7.26,307.0,9.1,12.57,47.59359,-54.27349
2019-12-09 00:34:01+00:00,283.0,7.28,282.0,8.59,12.57,47.59359,-54.27349
2019-12-09 00:44:01+00:00,278.0,6.64,277.0,7.61,12.57,47.59359,-54.27349
2019-12-09 00:54:01+00:00,305.0,4.46,305.0,9.32,12.57,47.59359,-54.27349
2019-12-09 01:04:01+00:00,271.0,6.56,270.0,8.46,12.57,47.59359,-54.27349
2019-12-09 01:14:01+00:00,295.0,6.64,298.0,7.37,12.57,47.59359,-54.27349
2019-12-09 01:24:01+00:00,283.0,7.25,287.0,8.72,12.57,47.59359,-54.27349
2019-12-09 01:34:01+00:00,292.0,6.64,297.0,9.45,12.57,47.59359,-54.27349
2019-12-09 01:44:01+00:00,289.0,6.64,283.0,7.87,12.57,47.59359,-54.27349
2019-12-09 01:54:01+00:00,293.0,6.26,293.0,8.44,12.57,47.59359,-54.27349
2019-12-09 02:04:01+00:00,302.0,8.04,299.0,10.12,12.57,47.59359,-54.27349
2019-12-09 02:14:01+00:00,303.0,7.01,306.0,8.8,12.49,47.59359,-54.27349
2019-12-09 02:24:01+00:00,307.0,7.42,311.0,10.04,12.49,47.59359,-54.27349
2019-12-09 02:34:01+00:00,302.0,9.06,298.0,11.03,12.49,47.59359,-54.27349
2019-12-09 02:44:01+00:00,307.0,8.72,308.0,10.52,12.49,47.59359,-54.27349
2019-12-09 02:54:01+00:00,307.0,6.97,297.0,8.78,12.49,47.59359,-54.27349
2019-12-09 03:04:01+00:00,290.0,6.79,294.0,7.7,12.49,47.59359,-54.27349
2019-12-09 03:14:01+00:00,297.0,8.39,299.0,9.65,12.57,47.59359,-54.27349
2019-12-09 03:24:01+00:00,293.0,8.52,295.0,9.74,12.57,47.59359,-54.27349
2019-12-09 03:34:01+00:00,282.0,7.34,277.0,9.09,12.57,47.59359,-54.27349
2019-12-09 03:44:01+00:00,276.0,5.88,283.0,6.69,12.57,47.59359,-54.27349
2019-12-09 03:54:01+00:00,277.0,6.84,276.0,8.04,12.57,47.59359,-54.27349
2019-12-09 04:04:01+00:00,288.0,7.15,290.0,8.17,12.57,47.59359,-54.27349
2019-12-09 04:14:01+00:00,289.0,6.34,280.0,7.08,12.49,47.59359,-54.27349
2019-12-09 04:24:01+00:00,285.0,6.43,290.0,7.54,12.49,47.59359,-54.27349
2019-12-09 04:34:01+00:00,282.0,5.37,279.0,6.58,12.49,47.59359,-54.27349
2019-12-09 04:44:01+00:00,302.0,7.43,307.0,8.59,12.49,47.59359,-54.27349
2019-12-09 04:54:01+00:00,284.0,6.75,284.0,8.01,12.49,47.59359,-54.27349
2019-12-09 05:04:01+00:00,286.0,5.0,291.0,6.04,12.49,47.59359,-54.27349
2019-12-09 05:14:01+00:00,283.0,5.67,287.0,6.43,12.49,47.59359,-54.27349
2019-12-09 05:24:01+00:00,289.0,6.12,286.0,7.02,12.49,47.59359,-54.27349
2019-12-09 05:34:01+00:00,286.0,6.7,280.0,8.64,12.49,47.59359,-54.27349
2019-12-09 05:44:01+00:00,268.0,4.24,279.0,5.68,12.49,47.59359,-54.27349
2019-12-09 05:54:01+00:00,253.0,5.73,265.0,7.97,12.49,47.59359,-54.27349
2019-12-09 06:04:01+00:00,273.0,5.49,268.0,6.8,12.49,47.59359,-54.27349
2019-12-09 06:14:01+00:00,269.0,4.67,251.0,5.83,12.49,47.59359,-54.27349
2019-12-09 06:24:01+00:00,264.0,7.01,268.0,8.35,12.49,47.59359,-54.27349
2019-12-09 06:34:01+00:00,263.0,6.47,266.0,7.99,12.49,47.59359,-54.27349
2019-12-09 06:44:01+00:00,276.0,5.46,290.0,6.89,12.49,47.59359,-54.27349
2019-12-09 06:54:01+00:00,263.0,4.27,269.0,5.39,12.49,47.59359,-54.27349
2019-12-09 07:04:01+00:00,281.0,6.04,284.0,7.17,12.49,47.59359,-54.27349
2019-12-09 07:14:01+00:00,268.0,5.43,270.0,6.58,12.49,47.59359,-54.27349
2019-12-09 07:24:01+00:00,259.0,6.04,260.0,7.12,12.49,47.59359,-54.27349
2019-12-09 07:34:01+00:00,278.0,7.82,276.0,8.64,12.49,47.59359,-54.27349
2019-12-09 07:44:01+00:00,276.0,8.04,276.0,9.07,12.49,47.59359,-54.27349
2019-12-09 07:54:01+00:00,273.0,7.52,269.0,8.67,12.49,47.59359,-54.27349
2019-12-09 08:04:01+00:00,288.0,9.05,279.0,10.71,12.49,47.59359,-54.27349
2019-12-09 08:14:01+00:00,283.0,7.9,284.0,9.09,12.49,47.59359,-54.27349
2019-12-09 08:24:01+00:00,273.0,8.59,275.0,10.11,12.49,47.59359,-54.27349
2019-12-09 08:34:01+00:00,286.0,8.01,296.0,8.89,12.49,47.59359,-54.27349
2019-12-09 08:44:01+00:00,268.0,7.62,266.0,9.01,12.49,47.59359,-54.27349
2019-12-09 08:54:01+00:00,257.0,7.75,262.0,8.75,12.49,47.59359,-54.27349
2019-12-09 09:04:01+00:00,264.0,7.69,268.0,8.59,12.49,47.59359,-54.27349
2019-12-09 09:14:01+00:00,262.0,8.29,265.0,9.98,12.49,47.59359,-54.27349
2019-12-09 09:24:01+00:00,257.0,8.06,260.0,9.56,12.49,47.59359,-54.27349
2019-12-09 09:34:01+00:00,255.0,8.22,259.0,9.11,12.49,47.59359,-54.27349
2019-12-09 09:44:01+00:00,256.0,8.78,250.0,10.02,12.49,47.59359,-54.27349
2019-12-09 09:54:01+00:00,259.0,9.28,255.0,10.28,12.49,47.59359,-54.27349
2019-12-09 10:04:01+00:00,258.0,9.07,255.0,10.06,12.49,47.59359,-54.27349
2019-12-09 10:14:01+00:00,257.0,9.24,255.0,11.33,12.41,47.59359,-54.27349
2019-12-09 10:24:01+00:00,256.0,9.77,258.0,10.96,12.41,47.59359,-54.27349
2019-12-09 10:34:01+00:00,263.0,9.94,269.0,11.47,12.41,47.59359,-54.27349
2019-12-09 10:44:01+00:00,255.0,11.8,249.0,13.55,12.41,47.59359,-54.27349
2019-12-09 10:54:01+00:00,255.0,10.64,258.0,12.3,12.41,47.59359,-54.27349
2019-12-09 11:04:01+00:00,253.0,11.85,256.0,13.2,12.41,47.59359,-54.27349
2019-12-09 11:14:01+00:00,253.0,12.2,253.0,13.51,12.41,47.59359,-54.27349
2019-12-09 11:24:01+00:00,261.0,11.02,258.0,12.62,12.41,47.59359,-54.27349
2019-12-09 11:34:01+00:00,254.0,12.75,252.0,14.32,12.41,47.59359,-54.27349
2019-12-09 11:44:01+00:00,253.0,11.58,248.0,13.6,12.41,47.59359,-54.27349
2019-12-09 11:54:01+00:00,254.0,11.91,255.0,13.73,12.41,47.59359,-54.27349
2019-12-09 12:04:01+00:00,247.0,11.24,253.0,13.98,12.41,47.59359,-54.27349
2019-12-09 12:14:01+00:00,258.0,13.14,258.0,14.83,12.41,47.59359,-54.27349
2019-12-09 12:24:01+00:00,258.0,11.74,259.0,13.48,12.41,47.59359,-54.27349
2019-12-09 12:34:01+00:00,251.0,13.86,249.0,16.05,12.41,47.59359,-54.27349
2019-12-09 12:44:01+00:00,257.0,11.54,255.0,14.03,12.41,47.59359,-54.27349
2019-12-09 12:54:01+00:00,250.0,13.31,243.0,16.52,12.41,47.59359,-54.27349
2019-12-09 13:04:01+00:00,259.0,14.13,258.0,15.69,12.41,47.59359,-54.27349
2019-12-09 13:14:01+00:00,259.0,14.03,266.0,16.0,12.73,47.59359,-54.27349
2019-12-09 13:24:01+00:00,251.0,13.84,256.0,16.68,12.73,47.59359,-54.27349
2019-12-09 13:34:01+00:00,251.0,11.49,257.0,13.09,12.73,47.59359,-54.27349
2019-12-09 13:44:01+00:00,247.0,14.5,239.0,17.23,12.73,47.59359,-54.27349
2019-12-09 13:54:01+00:00,246.0,9.94,244.0,11.18,12.73,47.59359,-54.27349
2019-12-09 14:04:01+00:00,234.0,10.49,230.0,12.15,12.73,47.59359,-54.27349
2019-12-09 14:14:01+00:00,252.0,11.82,255.0,13.8,12.97,47.59359,-54.27349
2019-12-09 14:24:01+00:00,247.0,11.79,251.0,14.01,12.97,47.59359,-54.27349
2019-12-09 14:34:01+00:00,246.0,9.85,247.0,12.09,12.97,47.59359,-54.27349
2019-12-09 14:44:01+00:00,243.0,12.2,246.0,13.9,12.97,47.59359,-54.27349
2019-12-09 14:54:01+00:00,243.0,11.53,238.0,14.18,12.97,47.59359,-54.27349
2019-12-09 15:04:01+00:00,244.0,11.09,235.0,14.05,12.97,47.59359,-54.27349
2019-12-09 15:14:01+00:00,244.0,12.47,243.0,14.43,13.13,47.59359,-54.27349
2019-12-09 15:24:01+00:00,247.0,11.79,242.0,13.69,13.13,47.59359,-54.27349
2019-12-09 15:34:01+00:00,242.0,10.59,247.0,12.8,13.13,47.59359,-54.27349
2019-12-09 15:44:01+00:00,254.0,11.84,256.0,13.25,13.13,47.59359,-54.27349
2019-12-09 15:54:01+00:00,249.0,12.06,251.0,13.81,13.13,47.59359,-54.27349
2019-12-09 16:04:01+00:00,255.0,14.41,252.0,17.94,13.13,47.59359,-54.27349
2019-12-09 17:14:01+00:00,244.0,11.82,254.0,13.64,12.89,47.59359,-54.27349
2019-12-09 17:24:01+00:00,245.0,13.83,256.0,17.17,12.89,47.59359,-54.27349
2019-12-09 17:34:01+00:00,244.0,11.32,254.0,13.74,12.89,47.59359,-54.27349
2019-12-09 17:44:01+00:00,240.0,12.66,238.0,14.46,12.89,47.59359,-54.27349
2019-12-09 17:54:01+00:00,240.0,12.04,242.0,14.46,12.89,47.59359,-54.27349
2019-12-09 18:04:01+00:00,242.0,12.34,245.0,14.14,12.89,47.59359,-54.27349
2019-12-09 18:14:01+00:00,248.0,11.88,255.0,14.96,12.73,47.59359,-54.27349
2019-12-09 18:24:01+00:00,247.0,13.16,245.0,16.61,12.73,47.59359,-54.27349
2019-12-09 18:34:01+00:00,247.0,11.29,253.0,13.54,12.73,47.59359,-54.27349
2019-12-09 18:44:01+00:00,247.0,12.66,259.0,14.95,12.73,47.59359,-54.27349
2019-12-09 18:54:01+00:00,253.0,12.02,258.0,13.69,12.73,47.59359,-54.27349
2019-12-09 19:04:01+00:00,249.0,12.0,251.0,13.98,12.73,47.59359,-54.27349
2019-12-09 19:14:01+00:00,250.0,12.92,249.0,15.06,12.65,47.59359,-54.27349
2019-12-09 19:24:01+00:00,249.0,12.2,251.0,13.62,12.65,47.59359,-54.27349
2019-12-09 19:34:01+00:00,247.0,12.82,255.0,15.46,12.65,47.59359,-54.27349
2019-12-09 19:44:01+00:00,252.0,12.56,253.0,14.98,12.65,47.59359,-54.27349
2019-12-09 19:54:01+00:00,253.0,14.03,252.0,16.29,12.65,47.59359,-54.27349
2019-12-09 20:04:01+00:00,257.0,11.15,254.0,13.14,12.65,47.59359,-54.27349
2019-12-09 20:14:01+00:00,253.0,12.14,252.0,14.67,12.57,47.59359,-54.27349
2019-12-09 20:24:01+00:00,257.0,12.32,259.0,13.91,12.57,47.59359,-54.27349
2019-12-09 20:34:01+00:00,255.0,12.63,258.0,14.14,12.57,47.59359,-54.27349
2019-12-09 20:44:01+00:00,253.0,11.86,249.0,13.65,12.57,47.59359,-54.27349
2019-12-09 20:54:01+00:00,253.0,11.51,255.0,12.77,12.57,47.59359,-54.27349
2019-12-09 21:04:01+00:00,251.0,11.26,245.0,13.2,12.57,47.59359,-54.27349
2019-12-09 21:14:01+00:00,252.0,11.26,254.0,12.14,12.57,47.59359,-54.27349
2019-12-09 21:24:01+00:00,253.0,10.78,250.0,12.05,12.57,47.59359,-54.27349
2019-12-09 21:34:01+00:00,253.0,10.14,253.0,11.58,12.57,47.59359,-54.27349
2019-12-09 21:44:01+00:00,255.0,9.89,255.0,11.48,12.57,47.59359,-54.27349
2019-12-09 21:54:01+00:00,256.0,9.36,256.0,10.38,12.57,47.59359,-54.27349
2019-12-09 22:04:01+00:00,255.0,9.05,254.0,10.21,12.57,47.59359,-54.27349
2019-12-09 22:14:01+00:00,255.0,8.66,256.0,10.54,12.49,47.59359,-54.27349
2019-12-09 22:24:01+00:00,255.0,9.19,254.0,10.27,12.49,47.59359,-54.27349
2019-12-09 22:34:01+00:00,254.0,10.92,258.0,12.65,12.49,47.59359,-54.27349
2019-12-09 22:44:01+00:00,252.0,10.6,252.0,11.9,12.49,47.59359,-54.27349
2019-12-09 22:54:01+00:00,251.0,10.04,252.0,12.14,12.49,47.59359,-54.27349
2019-12-09 23:04:01+00:00,249.0,8.38,252.0,9.74,12.49,47.59359,-54.27349
2019-12-09 23:14:01+00:00,245.0,9.01,242.0,11.18,12.49,47.59359,-54.27349
2019-12-09 23:24:01+00:00,247.0,8.79,250.0,10.06,12.49,47.59359,-54.27349
2019-12-09 23:34:01+00:00,248.0,8.5,248.0,9.81,12.49,47.59359,-54.27349
2019-12-09 23:44:01+00:00,247.0,9.66,245.0,11.13,12.49,47.59359,-54.27349
2019-12-09 23:54:01+00:00,249.0,8.56,246.0,9.83,12.49,47.59359,-54.27349
